Showing default

KUIPER-00455, 68949

Orbit data source: Space-Track

KUIPER-00455, 68949 is a payload satellite owned by Kuiper Systems (US) in LEO that was launched on Thu, 30 Apr 2026 UTC via an ARIANE 64 launch vehicle from the French Guiana (FRGUI). Payload-class satellites include a variety of spacecraft equipped with specific instruments for various scientific and technological missions. These include communications satellites like Starlink; space stations such as the ISS; scientific satellites like the Hubble; Earth observation satellites from companies like Planet Labs, Umbra, and HawkEye 360; GPS; miniature CubeSats for education and research; and military/defense satellites.

Loading next visibility...
Identifier
68949, 2026-098AG
Orbit
LEO
Country
Flag of USUS
Related business
Manufacturer
Kuiper Systems
Mission
Operational Commercial Communications
Bus & Motor
KUIPER, Unknown motor
Mass
~490 kg wet, ~490 kg dry
Launch date (UTC)
2026-04-30 (3 months ago)
Launch vehicle
ARIANE 64
Launch site
French Guiana (FRGUI)
Object type
Payload
Rocket body
Debris
Shape & HBR
Box + 2 Pan, 3.4 m
Radar Cross Section
2.326 m², Large (>1 m²)

Expand to show TLE details & history
Last TLE update: 21 hours ago

TLE from 21 hours ago
0 KUIPER-00455
1 68949U 26098AG  26208.09207555 -.00004054  00000-0 -50288-3 0  9993
2 68949  51.8990 246.7049 0001959 313.8761  46.2039 14.79945766 13326
Epoch: 2026-07-27T02:12Z
TLE epoch observation values (Epoch: 2026-07-27T02:12:35.327Z)
Latitude
-0.00005°
Longitude
-91.22295°
Altitude
629.292 km
Speed
7.546 km/s
True Right ascension
16h 26m 49s
True Declination
0° 00' 00"
Sunlit
Object was in full shadow at epoch
Visualization orbit readout
Latitude
Unknown
Longitude
Unknown
Altitude
Unknown
Speed
Unknown
Apparent Right ascension
Unknown
Apparent Declination
Unknown
Sunlit
N/A
Visualization observer readout
Local Sidereal Time
12:25:58
Azimuth
Unknown
Elevation
Unknown
Doppler factor
Unknown
Orbital elements
Apogee altitude
631.32 km
Perigee altitude
628.574 km
Semi-major axis
7,008.084 km
Eccentricity
0.0002
Inclination
51.899°
RAAN
246.7049°
Arg. of periapsis
313.8761°
True anomaly
46.22011°
Mean anomaly
46.2039°
Eccentric anomaly
46.212°
Mean motion
3.69951 °/min
Orbital period
97.31 mins
BSTAR
-0.00050288
Loading maneuver chart data...
Computing Atmospheric mass density...
Loading historical data...
Loading historical data...
Loading historical data...
Loading historical data...
Loading historical data...
Loading historical data...
Loading historical data...

Documentation

Showing up to 5 results
|